Location: Cronhütte
(48.9135°N, 9.6869°E)
Time: 21:25:34
(UTC+00:00)

Meteor 2-5 Rocket - Pass Details

Date: 23 May 2024
Orbit: 832 x 911 km, 81.2° (Epoch: 14 June)

Event Time Altitude Azimuth Distance (km) Brightness Sun altitude
Exits shadow 02:43:02 - 211° (SSW) 2,845 5.8 -6.8°
Reaches altitude 10° 02:43:46 10° 213° (SSW) 2,579 5.6 -6.7°
Maximum altitude 02:49:28 49° 288° (WNW) 1,160 4.3 -6.1°
Drops below altitude 10° 02:55:15 10° 3° (N) 2,611 6.9 -5.3°
Sets 02:57:50 0° 9° (N) 3,555 7.8 -5.0°
